Lapse_Rate
4.9 5.1 5.2 5.4 5.5 5.5 5.8 6.1 6.2 6.2 6.2 6.3 6.2 6.0 6.1 6.1 6.2 6.3 6.3 6.3 6.3 6.3 6.3 6.3 6.3 6.5 6.3 6.3 6.2 6.3 6.4 6.5 6.5 6.5 6.6 6.6 6.6 6.6 6.6 6.4 6.4 6.4 6.3 6.3 6.2 6.3 6.4 6.5 6.5
5.0 5.1 5.1 5.2 5.5 5.6 6.1 6.3 6.2 6.3 6.3 6.3 6.3 6.3 6.3 6.3 6.4 6.4 6.4 6.3 6.2 6.1 6.3 6.4 6.3 6.2 6.1 6.1 6.0 6.3 6.4 6.5 6.4 6.5 6.5 6.5 6.4 6.3 6.2 6.2 6.1 6.3 6.3 6.3 6.4 6.4 6.3 6.3 6.2
5.1 5.1 5.1 5.3 5.6 6.0 6.2 6.2 6.2 6.1 6.3 6.4 6.4 6.3 6.2 6.2 6.3 6.3 6.2 6.2 6.1 6.2 6.2 6.3 6.3 6.2 6.3 6.4 6.6 6.6 6.6 6.5 6.5 6.5 6.5 6.5 6.3 6.3 6.2 6.1 6.1 6.3 6.4 6.3 6.4 6.4 6.5 6.6 6.5
5.3 5.3 5.2 5.5 6.0 6.0 6.2 6.2 6.2 6.1 6.3 6.5 6.4 6.4 6.2 6.2 6.2 6.3 6.3 6.4 6.3 6.3 6.3 6.3 6.4 6.4 6.5 6.5 6.5 6.4 6.3 6.3 6.3 6.3 6.4 6.4 6.4 6.3 6.3 6.4 6.4 6.4 6.4 6.5 6.6 6.6 6.6 6.6 6.6
5.3 5.3 5.3 5.6 6.0 6.1 6.1 6.3 6.3 6.3 6.5 6.5 6.4 6.5 6.2 6.1 6.1 6.3 6.4 6.5 6.6 6.5 6.4 6.3 6.2 6.2 6.2 6.2 6.2 6.1 6.1 6.2 6.2 6.3 6.3 6.3 6.3 6.4 6.5 6.5 6.5 6.4 6.5 6.7 6.8 6.8 6.7 6.6 6.5
5.2 5.3 5.5 5.9 6.2 6.2 6.2 6.3 6.4 6.4 6.4 6.5 6.5 6.5 6.1 6.0 6.1 6.1 6.1 6.2 6.4 6.4 6.3 6.2 6.2 6.1 6.1 6.0 5.9 5.9 5.9 6.0 6.1 6.2 6.2 6.2 6.3 6.3 6.3 6.4 6.4 6.5 6.7 6.9 6.9 6.8 6.7 6.6 6.5
5.2 5.3 5.6 6.0 6.3 6.2 6.2 6.3 6.4 6.3 6.3 6.4 6.5 6.4 6.1 6.1 5.9 5.8 5.8 5.9 6.0 6.0 6.1 6.2 6.2 6.1 6.0 5.9 5.8 5.8 5.8 5.8 5.9 6.1 6.2 6.2 6.2 6.3 6.3 6.3 6.5 6.6 6.7 6.8 6.8 6.6 6.7 6.6 6.6
5.3 5.2 5.8 6.1 6.5 6.2 6.2 6.2 6.2 6.2 6.2 6.2 6.3 6.2 6.2 6.0 5.9 5.9 5.8 5.8 5.8 5.8 5.8 5.8 5.8 5.8 5.8 5.7 5.7 5.7 5.7 5.8 5.9 6.1 6.2 6.2 6.3 6.3 6.3 6.4 6.5 6.6 6.8 6.6 6.5 6.5 6.5 6.5 6.4
5.3 5.2 5.9 6.2 6.4 6.4 6.4 6.2 6.3 6.2 6.1 6.2 6.2 6.1 6.0 6.0 6.0 5.9 5.9 5.9 5.8 5.9 5.8 5.8 5.8 5.7 5.6 5.6 5.6 5.7 5.6 5.7 5.9 6.1 6.2 6.2 6.2 6.2 6.4 6.5 6.6 6.6 6.6 6.5 6.3 6.3 6.4 6.3 6.4
5.3 5.7 6.0 6.2 6.3 6.3 6.3 6.3 6.3 6.2 6.1 6.0 6.0 6.2 6.2 6.2 6.1 5.9 5.8 5.8 5.8 5.8 5.9 5.8 5.7 5.6 5.6 5.6 5.6 5.6 5.7 5.8 5.9 6.1 6.1 6.2 6.2 6.1 6.4 6.5 6.6 6.5 6.5 6.4 6.3 6.3 6.2 6.1 6.3
5.6 6.1 6.0 6.0 6.2 6.2 6.1 6.2 6.2 6.3 6.5 6.0 6.1 6.3 6.4 6.3 6.2 6.0 5.9 5.9 5.9 5.9 5.8 5.7 5.6 5.6 5.6 5.7 5.6 5.7 5.7 5.7 5.9 6.0 6.1 6.2 6.1 6.2 6.4 6.5 6.5 6.6 6.5 6.3 6.1 6.0 5.9 6.0 6.1
5.5 6.1 6.0 6.1 6.1 6.2 6.1 6.3 6.3 6.5 6.6 6.2 6.5 6.6 6.5 6.4 6.2 6.1 6.0 5.9 5.9 5.9 5.9 5.8 5.7 5.7 5.7 5.6 5.7 5.7 5.7 5.8 5.8 6.0 6.1 6.1 6.1 6.2 6.4 6.4 6.6 6.5 6.4 6.2 5.9 5.6 5.6 5.7 6.1
5.5 6.0 6.0 5.8 6.1 6.2 6.2 6.3 6.4 6.9 6.5 6.5 6.8 6.8 6.8 6.7 6.4 6.3 6.2 6.0 6.0 6.0 6.0 6.0 5.8 5.7 5.7 5.6 5.6 5.7 5.8 5.8 5.9 6.1 6.1 6.1 6.1 6.2 6.3 6.4 6.4 6.3 6.1 5.9 5.4 5.3 5.5 5.9 6.1
5.6 5.9 5.9 6.1 6.1 6.3 6.3 6.3 6.5 6.9 6.5 6.7 6.8 6.9 6.9 6.8 6.6 6.5 6.1 6.1 6.2 6.2 6.2 5.9 5.7 5.5 5.6 5.6 5.6 5.7 5.8 5.8 6.0 6.2 6.2 6.1 6.1 6.2 6.2 6.3 6.3 6.2 5.9 5.5 5.1 5.3 5.5 5.8 6.1
5.3 5.7 5.7 6.2 6.2 6.0 6.3 6.6 7.0 6.4 7.0 6.9 6.9 6.9 6.9 6.8 6.8 6.4 6.3 6.2 6.3 6.3 6.2 6.1 5.8 5.7 5.6 5.6 5.6 5.7 5.8 5.9 6.1 6.2 6.2 6.2 6.1 6.2 6.1 6.2 6.2 6.0 5.7 5.0 5.2 5.3 5.4 5.8 6.3
5.2 5.2 5.8 6.3 6.3 6.1 6.3 7.0 7.0 6.9 6.9 7.0 7.0 6.9 6.8 6.7 6.8 6.6 6.4 6.3 6.4 6.3 6.3 6.2 6.1 6.0 5.8 5.6 5.6 5.8 5.9 6.0 6.1 6.3 6.2 6.2 6.1 6.1 6.1 6.1 5.9 5.8 5.4 4.9 5.3 5.4 5.6 6.3 6.8
4.7 5.0 6.0 6.2 6.3 6.3 6.3 6.9 7.2 7.2 6.8 6.8 6.8 6.7 6.7 6.7 6.6 6.6 6.5 6.5 6.5 6.5 6.4 6.4 6.3 6.2 6.0 5.8 5.8 5.9 6.0 6.1 6.2 6.2 6.2 6.1 6.2 6.1 6.1 6.0 5.8 5.7 5.3 5.1 5.6 5.5 6.2 6.8 6.9
5.5 5.4 5.7 5.8 6.0 6.1 6.2 7.0 6.7 6.7 6.8 6.6 6.7 6.7 6.7 6.7 6.7 6.6 6.5 6.5 6.5 6.5 6.6 6.6 6.5 6.3 6.2 6.1 5.9 5.9 6.0 6.1 6.3 6.2 6.1 6.1 6.2 6.0 6.0 5.9 5.8 5.6 5.3 5.3 5.7 5.8 6.6 6.8 6.8
5.6 5.4 5.5 5.8 5.6 5.6 6.1 6.4 6.6 6.3 6.5 6.7 6.7 6.7 6.8 6.8 6.7 6.9 6.7 6.7 6.6 6.5 6.6 6.6 6.5 6.4 6.3 6.1 6.0 6.0 6.1 6.2 6.3 6.2 6.2 6.2 6.2 6.0 6.0 5.8 5.6 5.5 5.3 5.5 5.8 6.2 6.7 6.7 7.0
5.0 5.0 5.2 5.5 5.5 5.3 5.5 6.1 6.7 6.6 6.8 6.8 6.9 6.9 6.8 6.9 6.9 6.9 6.9 6.8 6.7 6.7 6.7 6.7 6.6 6.5 6.3 6.1 6.0 6.0 6.2 6.3 6.4 6.3 6.3 6.3 6.2 6.1 6.0 5.8 5.4 5.3 5.3 5.6 5.8 6.2 6.4 6.4 6.6
4.8 4.7 5.2 5.5 5.4 5.3 5.2 5.7 6.8 6.6 6.6 6.8 7.0 7.0 7.1 7.1 7.1 7.0 6.9 6.9 6.8 6.8 6.8 6.8 6.7 6.5 6.3 6.2 6.1 6.2 6.2 6.3 6.5 6.4 6.3 6.3 6.2 6.1 5.9 5.7 5.5 5.4 5.4 5.8 5.9 6.2 6.0 5.9 6.0
5.0 5.4 5.6 5.3 5.0 4.6 5.1 4.3 6.4 6.3 6.6 6.9 7.0 7.1 7.2 7.2 7.2 7.1 7.2 7.0 6.9 6.9 6.9 6.8 6.7 6.5 6.4 6.3 6.2 6.2 6.3 6.4 6.6 6.5 6.4 6.2 6.2 6.1 5.9 5.7 5.4 5.4 5.3 5.8 5.9 6.1 5.9 5.6 5.7
5.5 5.7 5.5 5.4 4.9 4.5 4.5 4.4 5.3 6.2 6.4 6.9 7.2 7.1 7.1 7.1 7.1 7.2 7.3 7.1 7.0 6.9 6.9 6.9 6.7 6.5 6.4 6.3 6.3 6.3 6.3 6.5 6.6 6.5 6.5 6.3 6.2 6.0 5.9 5.7 5.5 5.6 5.4 5.8 5.9 6.0 5.8 5.5 5.7
5.7 5.3 5.3 5.3 4.9 2.9 4.5 5.1 4.7 6.2 7.1 7.1 7.2 7.2 7.0 7.0 7.0 7.2 7.1 7.1 7.0 7.0 6.9 6.8 6.7 6.5 6.4 6.4 6.4 6.4 6.4 6.6 6.7 6.5 6.5 6.3 6.2 6.0 5.9 5.7 5.5 5.6 5.5 5.6 5.9 5.9 5.9 5.8 5.7
5.4 5.4 4.9 4.1 2.9 2.4 4.8 4.4 5.0 6.0 6.9 7.1 7.1 7.1 7.1 7.0 7.0 7.0 6.9 6.9 6.8 6.8 6.8 6.7 6.6 6.4 6.4 6.4 6.4 6.5 6.6 6.6 6.7 6.7 6.6 6.3 6.2 6.0 6.0 5.7 5.4 5.5 5.5 5.8 5.8 5.7 5.9 5.9 5.8
5.5 6.1 5.8 4.4 3.4 3.6 4.9 4.5 5.6 6.5 7.0 7.3 7.2 7.1 7.1 7.1 7.0 6.9 6.9 6.9 6.9 6.8 6.8 6.7 6.5 6.4 6.4 6.4 6.6 6.6 6.7 6.7 6.7 6.8 6.7 6.4 6.2 5.9 6.0 5.7 5.5 5.5 5.6 5.6 5.8 5.7 6.1 6.1 5.9
5.8 5.9 6.4 6.2 4.9 3.9 5.3 5.3 6.1 6.6 7.0 7.4 7.3 7.4 7.1 7.1 7.0 7.0 6.9 6.9 6.9 6.8 6.7 6.5 6.5 6.4 6.3 6.4 6.6 6.6 6.6 6.6 6.6 6.7 6.8 6.4 6.3 6.1 6.1 5.8 5.5 5.5 5.6 5.6 5.4 5.6 5.7 6.0 6.1
6.9 6.8 6.2 6.4 3.9 3.9 4.4 4.8 6.5 6.9 7.1 7.6 7.8 7.4 7.2 7.2 7.2 7.0 7.0 7.0 7.0 6.7 6.6 6.6 6.5 6.4 6.4 6.5 6.6 6.6 6.6 6.6 6.7 6.7 6.7 6.5 6.3 6.2 6.1 6.0 5.5 5.3 5.4 5.5 5.3 5.3 5.6 5.3 5.7
6.1 5.9 6.5 6.6 6.6 4.4 3.4 5.9 6.7 7.1 7.6 7.7 7.7 7.5 7.4 7.2 7.0 6.9 7.0 7.0 6.9 6.8 6.7 6.6 6.4 6.3 6.4 6.5 6.5 6.6 6.7 6.6 6.7 6.7 6.6 6.7 6.6 6.3 6.3 6.2 5.9 5.4 5.2 5.3 5.3 5.2 5.1 4.6 5.2
6.4 6.4 6.7 7.2 5.9 6.1 5.9 5.8 7.0 7.1 7.5 7.9 7.8 7.8 7.7 7.5 7.2 7.1 7.1 7.0 6.9 6.8 6.8 6.5 6.4 6.3 6.4 6.4 6.5 6.7 6.7 6.6 6.8 6.8 6.8 6.7 6.8 6.6 6.5 6.3 6.1 5.8 5.5 5.4 5.3 5.2 5.2 4.9 5.0
Wind_Speed
5 6 3 4 3 3 3 4 2 2 2 1 2 2 2 2 3 2 1 6 3 10 10 15 16 11 10 10 10 9 9 9 8 8 8 8 8 8 9 10 10 10 9 9 9 9 10 11 10
4 2 4 2 3 1 4 3 4 4 2 3 2 2 1 2 1 2 5 4 9 13 13 13 15 12 10 10 10 10 9 8 8 7 7 7 8 9 10 10 10 10 10 10 10 10 10 11 11
2 4 3 4 3 4 4 4 3 2 3 3 1 1 3 1 1 5 2 9 12 9 12 14 15 12 12 11 11 10 9 8 7 6 7 7 8 8 9 9 10 9 9 10 10 10 10 10 10
3 4 4 3 5 6 4 3 4 1 1 2 1 1 0 1 1 1 9 11 11 8 12 15 14 12 11 11 11 10 8 7 7 6 7 7 8 8 9 9 9 10 11 11 11 11 11 10 10
4 3 3 1 5 5 5 4 2 4 2 2 3 2 2 1 2 8 12 11 12 9 12 13 13 12 11 10 10 9 8 7 6 7 8 9 9 10 10 10 11 11 11 11 10 10 11 11 11
4 3 3 3 5 5 5 5 3 3 1 1 2 3 2 1 5 8 9 9 10 10 10 11 13 12 11 10 9 8 7 6 6 7 9 9 10 11 11 11 12 11 11 11 11 12 12 12 11
5 4 4 3 4 5 4 4 3 4 2 4 2 2 1 2 5 8 8 8 8 10 9 9 11 11 12 11 10 8 6 6 7 7 9 11 11 11 11 11 12 12 12 13 12 12 12 12 13
4 4 3 4 4 5 0 1 0 3 4 1 4 3 2 3 9 9 8 7 7 6 7 8 9 10 10 9 10 8 7 6 7 7 10 11 10 11 11 11 12 13 14 14 14 13 13 13 13
3 3 3 5 6 4 2 1 1 2 2 3 3 1 1 9 11 8 7 5 6 5 6 8 8 8 8 8 7 7 7 7 6 7 10 9 8 9 9 10 12 12 13 13 13 13 14 14 12
3 3 9 4 4 3 1 1 2 2 2 3 3 3 4 9 9 12 10 9 8 8 6 6 8 8 7 6 6 6 5 5 5 6 7 7 7 7 7 8 9 10 11 12 12 13 12 11 10
4 5 3 3 4 2 2 2 2 2 5 9 6 4 6 8 8 10 9 9 12 9 7 7 7 8 8 6 5 4 4 4 5 6 6 6 5 6 7 6 7 8 10 9 10 10 9 10 10
2 6 4 3 1 1 3 3 4 7 7 3 7 3 6 10 11 12 11 9 10 9 9 8 9 8 7 6 5 5 4 4 3 4 4 5 5 6 6 6 7 7 8 9 8 8 10 12 11
4 4 4 5 5 5 1 7 6 9 12 8 6 6 8 10 10 5 6 6 7 9 9 9 8 7 8 6 5 5 4 3 3 3 3 4 4 4 5 6 7 8 8 8 8 8 9 9 10
4 3 5 6 6 4 5 3 2 6 0 1 4 9 7 10 12 5 7 8 10 8 9 8 8 8 9 5 6 5 5 4 3 3 3 4 3 4 5 5 6 7 9 9 8 6 4 5 8
0 4 5 7 4 6 6 7 10 6 3 8 7 6 8 8 8 12 11 10 11 7 9 10 8 8 6 6 7 6 5 4 3 2 3 3 3 4 4 4 5 8 10 11 8 6 5 6 5
1 2 1 1 6 2 5 9 3 3 6 8 5 6 6 8 11 8 8 10 9 9 11 9 8 8 6 6 6 6 5 4 3 3 2 3 3 4 4 5 5 10 8 8 5 5 5 6 7
2 4 5 6 6 3 4 6 2 2 3 3 4 5 6 6 5 6 9 10 11 11 11 10 9 9 8 8 7 6 5 3 3 2 2 2 3 5 5 5 7 10 8 5 5 4 4 5 5
6 4 4 5 2 3 3 13 12 7 6 10 8 7 7 8 9 5 6 7 9 10 10 10 8 9 9 6 5 4 3 2 2 1 1 3 4 5 5 5 7 8 5 5 6 5 4 3 4
4 4 3 3 1 3 6 10 15 10 6 9 10 8 9 8 3 2 4 6 9 9 11 12 11 9 8 4 3 2 2 1 1 1 1 3 4 5 5 5 6 7 4 5 5 4 4 4 6
1 3 4 4 1 3 5 13 13 8 7 7 7 7 7 5 4 3 5 5 8 11 11 11 10 10 6 3 2 2 2 1 1 2 1 2 3 4 4 5 4 6 5 5 6 5 3 2 6
3 5 3 4 3 1 6 8 5 2 3 3 3 3 2 7 7 5 6 6 8 11 12 11 10 9 6 5 5 3 3 2 1 1 0 1 2 3 4 4 6 4 4 3 5 5 5 3 2
6 8 7 4 1 4 2 5 6 3 6 5 5 4 5 5 5 4 6 7 9 8 8 10 10 9 6 6 3 3 3 2 2 1 1 1 2 3 4 5 6 5 5 4 4 4 3 1 3
5 3 7 2 1 4 1 2 7 1 6 8 8 7 6 7 8 9 8 7 6 8 8 8 8 7 6 5 4 3 3 2 2 1 2 1 2 2 4 5 6 5 4 3 2 4 4 2 1
8 6 6 4 3 2 7 7 5 6 8 2 5 7 8 7 7 6 5 7 6 5 6 7 8 6 6 5 5 5 5 4 3 2 1 1 1 1 3 5 6 6 5 4 2 2 2 3 2
3 6 2 3 2 6 3 2 7 7 5 4 8 9 8 7 7 8 9 8 7 8 7 7 8 6 6 6 5 5 5 5 4 3 2 1 1 1 2 4 5 4 6 3 1 3 3 3 3
7 8 6 7 4 3 2 7 6 4 6 3 6 8 7 7 6 8 9 9 9 8 8 7 8 6 6 6 5 4 5 3 3 3 2 2 1 1 1 3 4 6 7 5 2 2 3 3 3
6 7 6 7 2 2 5 7 10 6 5 5 6 7 9 8 8 8 7 8 8 8 9 9 8 6 6 6 5 5 4 5 4 4 2 1 1 1 1 2 3 5 5 4 3 2 3 4 4
5 8 4 2 4 4 4 5 6 5 10 7 8 8 7 7 7 7 7 8 6 6 6 6 7 8 6 6 5 5 5 4 4 3 3 3 1 1 1 2 3 4 4 3 3 3 2 5 2
4 3 2 4 5 5 1 6 8 10 8 14 10 9 9 8 8 8 7 6 7 6 7 7 7 7 6 6 5 5 5 4 4 4 3 3 2 2 1 2 2 2 3 2 2 2 2 6 4
2 3 7 5 6 2 3 7 1 5 5 8 8 7 6 6 8 7 7 7 7 7 6 7 6 7 6 6 5 5 5 5 4 4 5 4 3 2 2 2 2 1 1 1 2 3 2 4 5
Wind_Direction
355 0 63 40 51 60 259 251 261 266 246 247 126 151 186 175 172 202 333 198 138 144 149 128 126 137 131 117 105 96 86 81 74 68 62 56 47 41 33 27 23 19 12 7 1 354 350 354 4
352 37 47 79 92 56 263 251 230 230 226 137 132 100 129 239 104 118 124 161 151 139 131 125 127 134 122 109 100 92 89 84 77 68 58 47 39 31 27 22 15 12 8 5 2 356 351 346 347
100 39 80 90 110 200 219 214 229 253 245 197 143 38 143 235 101 170 115 140 129 120 120 125 124 132 127 123 119 114 108 104 93 73 54 40 31 27 25 16 12 8 6 358 353 348 344 340 334
50 16 44 93 228 253 217 193 210 241 270 247 145 262 21 49 73 158 145 136 128 130 124 129 133 142 137 130 125 118 112 98 80 61 43 34 29 24 16 11 10 359 350 348 348 343 337 334 328
40 56 74 65 253 262 249 248 209 194 215 209 178 211 215 74 91 136 148 143 138 133 133 136 141 140 134 128 124 123 116 102 80 55 41 33 27 15 9 5 356 353 352 346 344 342 337 330 321
51 96 75 229 244 259 271 229 173 213 220 219 190 150 206 116 133 149 140 136 138 136 135 135 135 133 134 134 133 125 117 99 77 57 45 30 20 13 4 4 357 352 351 347 342 339 333 327 321
119 99 210 221 255 296 239 148 197 187 177 240 173 162 140 178 143 140 125 124 128 131 131 128 131 132 131 130 127 126 116 89 74 58 44 33 23 14 7 4 357 352 348 345 343 341 337 331 327
108 94 164 239 207 261 261 265 261 163 233 351 182 229 220 166 142 122 115 118 124 131 133 130 121 127 128 126 124 122 107 96 78 59 42 33 20 11 11 9 360 358 356 352 348 343 339 335 332
141 70 223 238 168 239 353 262 307 298 306 316 217 169 100 128 130 122 123 113 132 145 149 142 137 137 136 132 128 113 99 82 69 47 39 25 13 9 7 5 4 1 356 355 348 343 338 336 327
108 151 218 212 203 243 229 207 277 18 23 271 283 100 108 144 161 160 169 165 169 171 171 160 151 151 146 140 133 116 95 82 69 47 37 23 13 8 10 3 5 358 356 346 341 340 335 332 322
166 204 230 264 233 229 263 256 210 185 258 221 216 209 161 175 183 180 184 183 182 176 169 171 163 164 158 148 143 117 107 95 67 57 37 23 17 9 8 0 357 348 340 340 339 337 340 334 324
204 232 219 292 284 165 248 310 270 200 231 198 204 199 165 186 197 193 191 183 172 175 178 174 172 167 167 154 149 140 129 108 88 66 49 33 20 11 5 358 346 338 339 337 345 340 335 339 335
204 236 179 245 265 256 321 255 252 257 245 254 248 198 203 192 202 201 183 177 173 183 177 180 173 175 165 156 143 138 128 114 105 80 58 48 31 18 355 355 341 336 338 344 342 342 341 342 341
195 226 259 261 235 231 220 230 149 265 159 195 207 227 215 195 193 168 184 187 186 186 179 166 179 176 164 152 149 138 131 125 104 89 63 51 34 9 4 355 341 342 342 344 342 332 331 357 347
290 309 306 225 223 226 174 273 231 232 212 284 251 238 226 220 185 202 198 197 184 187 163 170 169 168 161 147 139 138 143 129 115 99 58 46 34 10 4 346 340 350 340 346 342 330 1 12 358
275 64 283 198 158 223 159 263 259 7 179 247 265 223 229 225 226 216 201 195 184 158 172 163 158 154 143 143 139 137 133 121 120 111 59 56 26 16 10 354 349 340 348 350 350 356 13 18 15
352 243 213 310 192 145 186 265 249 86 68 285 278 255 239 228 231 240 210 190 179 173 160 160 154 149 140 131 127 126 128 127 123 104 85 50 25 19 16 5 343 342 345 4 352 6 22 17 8
206 225 246 255 204 206 217 262 275 266 263 263 262 253 231 231 242 265 202 175 163 158 156 147 141 136 129 120 116 107 117 122 118 135 100 55 32 20 25 7 345 344 346 10 9 10 8 8 347
141 189 242 237 254 237 234 269 273 279 249 261 258 240 238 239 234 125 134 131 129 142 146 149 144 146 142 138 134 141 168 169 147 180 82 54 34 22 18 7 338 351 344 12 3 7 4 15 355
150 171 238 271 215 202 318 281 262 246 246 216 246 249 244 178 163 145 136 136 151 153 149 147 148 154 159 137 141 137 149 158 158 188 133 63 36 26 22 1 339 350 335 24 24 24 18 8 19
241 213 238 234 335 220 325 286 286 268 239 213 229 248 230 184 167 165 153 149 141 153 157 154 152 156 155 138 121 101 94 87 155 204 146 86 43 13 22 2 340 347 330 19 16 12 40 3 356
234 206 212 230 59 242 1 282 293 259 268 226 215 194 189 168 145 158 161 156 159 154 138 140 144 150 157 157 145 150 152 155 192 172 135 69 51 13 5 3 347 350 332 10 24 23 45 36 37
222 139 179 157 205 355 255 291 268 299 271 232 211 199 188 185 172 171 170 157 144 144 148 141 140 150 153 159 159 148 146 133 138 171 147 93 59 16 1 2 347 346 329 349 47 29 8 40 52
155 87 59 65 89 292 199 188 255 197 215 209 184 188 185 181 174 159 143 135 136 131 135 143 150 155 160 158 161 163 158 157 151 183 156 119 83 353 12 359 350 330 329 349 347 66 34 72 62
127 116 5 356 9 228 344 272 261 260 229 219 194 189 189 180 170 162 158 160 154 161 159 154 155 162 168 160 161 173 162 166 169 180 169 157 95 70 15 355 356 328 335 351 35 96 67 70 76
187 166 163 194 201 233 63 229 244 238 242 193 170 172 168 181 182 179 176 169 168 167 167 162 164 157 171 166 171 169 162 167 172 187 174 174 153 151 1 343 355 325 341 351 88 92 89 73 77
195 210 156 106 55 53 214 284 288 221 231 200 166 159 179 184 188 187 176 176 174 171 176 174 168 164 175 177 164 175 169 169 177 184 180 168 169 148 35 18 352 334 352 6 56 71 81 85 92
167 158 94 13 153 248 265 280 247 251 223 199 200 196 188 180 179 186 185 182 179 172 166 169 172 173 178 173 180 181 175 174 168 164 196 189 183 138 85 60 10 347 349 21 67 72 98 84 63
151 183 175 137 162 184 227 255 218 225 201 198 200 191 184 181 181 184 187 185 176 159 168 177 174 172 177 182 180 177 170 172 168 173 195 199 179 173 160 99 49 14 343 30 83 75 90 109 104
16 186 176 174 217 244 145 262 296 269 265 186 183 178 179 177 179 179 178 170 170 177 170 181 181 184 188 183 178 180 162 166 181 181 192 195 202 174 179 122 95 343 8 161 143 133 123 133 136